Location: Coupvray
(48.8929°N, 2.7967°E)
Time: 03:55:20
(UTC+00:00)

Cosmos 2061 Rocket - Pass Details

Date: 14 July 2020
Orbit: 965 x 1014 km, 82.9° (Epoch: 06 August)

Event Time Altitude Azimuth Distance (km) Brightness Sun altitude
Exits shadow 01:41:57 21° 187° (S) 2,087 5.2 -15.5°
Maximum altitude 01:46:27 90° 109° (ESE) 1,000 4.0 -15.2°
Drops below altitude 10° 01:52:48 10° 9° (N) 2,749 7.6 -14.7°
Sets 01:55:18 0° 10° (N) 3,695 8.5 -14.5°
